Location: Birdton
(46.1166°N, 66.8166°W)
Time: 12:50:50
(UTC-04:00)

Daily predictions for brighter satellites

Satellite Brightness Start Highest point End
(mag) Time Altitude Azimuth Time Altitude Azimuth Time Altitude Azimuth
COSMOS 2441 4.4 17:08:48 10° SSE 17:13:42 76° ENE 17:18:36 10° N
Ariane Rocket 3.3 17:11:45 10° SE 17:16:32 44° ENE 17:21:19 10° N
Cosmos 1455 Rocket 3.2 17:13:26 10° N 17:17:46 53° ENE 17:22:03 10° SSE
Cosmos 1898 Rocket 4.4 17:12:59 10° SW 17:18:04 51° WNW 17:23:13 10° NNE
ALOS 3.8 17:15:36 10° E 17:18:08 15° ENE 17:20:41 10° NNE
Okean-O 4.2 17:14:19 10° S 17:18:29 40° W 17:22:42 10° NNW
Cosmos 1975 3.1 17:14:47 10° NNW 17:18:50 77° W 17:22:54 10° S
Meteor 1-28 Rocket 4.5 17:16:03 10° NE 17:19:04 22° E 17:22:05 10° SSE
Cosmos 724 4.3 17:13:32 10° NNW 17:19:19 67° NE 17:25:06 10° SE
Cosmos 1655 Rocket 4.1 17:15:39 10° N 17:22:05 82° E 17:28:30 10° S
Cosmos 1544 Rocket 3.5 17:18:00 10° N 17:22:21 64° E 17:26:38 10° SSE
Cosmos 2369 Rocket 4.4 17:19:36 10° WNW 17:22:34 14° NW 17:25:33 10° N
Cosmos 1697 Rocket 3.8 17:19:19 10° SSE 17:23:47 25° ESE 17:28:17 10° NE
Meteor 1-13 Rocket 4.5 17:19:17 10° SSE 17:24:41 51° E 17:30:14 10° NNE
Cosmos 1937 Rocket 4.0 17:19:39 10° SW 17:24:46 60° WNW 17:29:52 10° NNE
IRAS Rocket 4.2 17:20:38 10° SSE 17:26:01 63° ENE 17:31:27 10° N
Cosmos 1269 Rocket 4.2 17:24:06 10° NNW 17:29:15 48° ENE 17:34:22 10° SE
Cosmos 1125 Rocket 4.0 17:24:45 10° S 17:29:44 43° ESE 17:34:43 10° NE
Cosmos 1743 2.8 17:28:26 10° N 17:32:21 84° W 17:36:14 10° S
YAOGAN 1 3.4 17:28:39 10° SE 17:32:24 30° ENE 17:36:10 10° N
Cosmos 1048 Rocket 4.1 17:29:34 10° NNW 17:34:58 65° ENE 17:40:17 10° SSE
NOSS 3-2 (A) 4.0 17:29:31 10° NW 17:36:58 76° NE 17:45:07 10° SE
Cosmos 372 Rocket 4.3 17:32:03 10° S 17:37:01 47° ESE 17:41:58 10° NNE
Cosmos 2082 3.6 17:31:29 10° NNW 17:37:09 80° ENE 17:42:47 10° SSE
Cosmos 389 Rocket 4.1 17:41:23 10° NNW 17:44:39 38° W 17:47:51 10° SSW
ERS-2 3.4 17:42:26 10° ESE 17:45:12 20° ENE 17:47:58 10° NNE
Meteor 1-19 Rocket 4.3 17:39:54 10° S 17:45:36 83° E 17:51:28 10° NNE
NOSS 3-2 (C) 4.0 17:38:30 10° NW 17:45:55 69° NE 17:54:03 10° SE
COSMO-SKYMED 1 3.8 17:43:47 11° NE 17:47:03 23° E 17:50:30 10° SSE
CORIOLIS 4.1 17:41:54 10° SSE 17:47:15 69° ENE 17:52:38 10° N
SJ 16-02 1.4 17:43:00 10° S 17:47:18 57° ESE 17:51:39 10° NNE
Cosmos 2227 Rocket 2.6 17:41:41 10° NNW 17:47:20 71° WSW 17:52:56 10° SSE
ATLAS 3B R/B 3.2 17:40:50 10° NW 17:47:26 62° WSW 17:53:51 10° SSE
BREEZE-M DEB (TANK) 3.0 17:46:38 10° WNW 17:49:10 74° NNE 17:54:38 10° ESE
CZ-4 R/B 1.3 17:48:47 10° SSE 17:52:38 63° ENE 17:56:36 10° N
ATLAS 2AS CENTAUR R/B 3.4 17:46:31 10° SW 17:54:21 67° NW 18:02:30 10° NE
AQUARIUS 4.2 17:51:54 10° SSE 17:56:23 88° WSW 18:00:56 10° NNW
NOSS 8 (A) 4.2 17:54:29 10° SW 17:57:44 85° SE 18:00:02 19° NE
Abrixas rocket 2.4 17:56:30 10° W 17:59:42 54° N 18:01:23 24° ENE
Meteor 2-9 Rocket 4.2 17:55:54 10° NNW 18:01:26 84° W 18:06:48 10° S
USA 215 3.5 17:57:40 10° SE 18:04:11 74° SW 18:10:45 10° NW
Cosmos 1980 Rocket 3.0 18:00:39 10° SSE 18:05:35 31° ESE 18:08:38 19° ENE
Cosmos 1025 Rocket 3.5 18:04:40 10° SSE 18:08:36 37° E 18:11:21 17° NNE
Cosmos 1656 3.6 18:05:20 10° SSW 18:10:54 84° ESE 18:15:58 12° NNE
Cosmos 2084 3.9 18:08:39 10° SSW 18:12:31 39° ESE 18:14:03 27° ENE
Cosmos 2297 Rocket 3.1 18:08:00 10° NW 18:13:30 52° WSW 18:18:57 10° S
Okean 2 3.7 18:11:10 10° SSE 18:15:02 42° E 18:17:21 21° NNE
NOSS 3-4 (A) 3.6 18:09:40 10° SSW 18:15:43 57° ESE 18:20:01 21° NE
NOSS 3-4 (C) 3.6 18:09:46 10° SSW 18:15:49 56° ESE 18:20:05 21° NE
CZ-2C R/B 3.7 18:13:53 10° NNE 18:18:37 78° ESE 18:23:23 10° S
Meteor 1-23 Rocket 4.2 18:15:19 10° S 18:21:02 78° E 18:26:44 10° NNE
Cosmos 1536 Rocket 4.1 18:18:16 10° SSW 18:22:33 58° WNW 18:26:50 10° N
Okean 1-7 Rocket 4.0 18:18:32 10° SSE 18:22:38 40° E 18:24:28 27° NE
NOAA 12 4.1 18:19:16 10° SE 18:24:22 54° ENE 18:29:29 10° N
CENTAUR R/B 3.1 18:18:14 10° NW 18:25:53 59° NE 18:34:11 10° ESE
MOS 1 4.2 18:22:42 10° SSE 18:28:22 76° ENE 18:34:03 10° NNW
DNEPR-1 R/B 4.0 18:24:33 10° NW 18:29:36 77° NE 18:35:44 10° SE
Cosmos 1241 Rocket 4.4 18:25:42 10° SSW 18:32:03 79° ESE 18:36:10 23° NE
SKYMED 2 3.4 18:32:23 20° NNE 18:35:21 72° ESE 18:39:41 10° S
Cosmos 2227 4.2 18:30:22 10° NNW 18:36:04 57° ENE 18:41:40 10° SE
NOSS 2-2 (E) 4.2 18:34:47 10° S 18:38:13 33° ESE 18:38:13 33° ESE
Cosmos 1606 Rocket 3.6 18:34:19 10° N 18:38:34 51° ENE 18:42:46 10° SSE
METEOR-M 4.5 18:36:52 10° S 18:42:10 67° WSW 18:47:31 10° NNW
MONITOR-E 4.3 18:41:13 10° S 18:44:15 69° WSW 18:47:19 10° NNW
NOSS 2-2 (C) 4.3 18:42:00 10° S 18:44:52 31° SE 18:44:52 31° SE
FENGYUN 3A 3.5 18:40:15 10° SSE 18:45:37 83° ENE 18:51:01 10° NNW
Cosmos 2263 Rocket 3.0 18:41:57 10° N 18:46:09 30° NE 18:46:09 30° NE
SL-16 R/B 3.6 18:45:13 10° SSE 18:47:41 20° SE 18:47:41 20° SE
Lacrosse 5 rocket 3.7 18:48:55 10° SSE 18:49:37 13° SSE 18:49:37 13° SSE
Cosmos 2322 Rocket 3.7 18:48:49 10° SSE 18:51:06 20° SE 18:51:06 20° SE
ALOS 2.3 18:50:19 10° S 18:54:58 77° WSW 18:59:40 10° NNW
Cosmos 494 Rocket 4.3 18:52:26 10° NNW 18:57:42 69° WSW 19:02:54 10° S
SPOT 3 Rocket 3.7 18:54:03 10° S 18:59:13 75° WSW 19:04:25 10° NNW
Cosmos 2360 4.1 18:55:04 10° SSW 19:00:47 76° ESE 19:02:42 43° NE
Cosmos 1726 Rocket 4.4 18:57:13 10° N 19:05:21 13° SSE 19:05:53 10° SSE
Cosmos 2251 Rocket 3.5 19:01:33 10° NNW 19:06:52 85° WSW 19:12:07 10° SSE
Cosmos 1697 Rocket 3.3 19:01:50 10° SW 19:07:22 55° WNW 19:10:37 25° N
RESURS DK-1 2.8 19:03:56 10° SSW 19:07:11 53° S 19:07:11 53° S
Cosmos 1892 Rocket 4.4 19:04:06 10° S 19:06:56 38° SSE 19:06:56 38° SSE
EO 1 Del DPAF 3.8 19:10:43 52° NW 19:11:05 55° WNW 19:14:49 10° SSW
COSMOS 2455 4.0 19:07:56 10° NNW 19:11:44 28° NNE 19:11:44 28° NNE
ERS-2 3.9 19:15:23 10° SSW 19:18:41 31° W 19:22:00 10° NW
COSMO-SKYMED 1 3.9 19:20:59 21° NNW 19:23:19 37° WNW 19:27:18 10° SW
S3M 3.8 19:18:34 10° S 19:24:39 82° E 19:26:25 49° NNE
SJ 16-02 3.9 19:23:17 10° W 19:26:17 18° NW 19:28:58 11° NNW
Cosmos 1386 Rocket 4.4 19:27:13 10° N 19:33:39 80° E 19:40:03 10° S
ATLAS 2AS CENTAUR R/B 4.4 19:40:10 10° W 19:46:56 28° NNW 19:50:03 23° NNE
Cosmos 1980 Rocket 3.1 19:43:59 10° SW 19:49:25 45° NW 19:50:26 41° NNW
Gbstr 26 Del rocket 4.3 19:42:19 10° W 19:50:07 64° NNW 19:50:32 63° N
CENTAUR R/B 4.0 20:09:11 10° NW 20:16:36 44° WSW 20:22:17 19° S
Cosmos 2344 4.0 20:16:47 10° SSW 20:22:05 50° SSW 20:22:05 50° SSW
Cosmos 2263 Rocket 4.1 20:25:43 10° NW 20:27:54 23° NW 20:27:54 23° NW
SL-16 R/B 4.3 20:27:51 10° SW 20:29:37 20° SW 20:29:37 20° SW
Cosmos 2322 Rocket 4.4 20:31:33 10° SW 20:32:59 18° SW 20:32:59 18° SW
